Project,Study,Ord_Occ,Event_Num,Cast_ID,Date_Time_UTC,Date_Time_PST,Lat_Dec,Lon_Dec,Sta_ID,Line,Sta,Depth,Pressure,PrQ,Temp1,Temp1Q,Temp2,Temp2Q,TempAve,Salt1,Salt1Q,Salt1_Corr,Salt2,Salt2Q,Salt2_Corr,SaltAve_Corr,Ox1,Ox1Q,Ox1_CruiseCorr,Ox1_StaCorr,Ox2,Ox2Q,Ox2_CruiseCorr,Ox2_StaCorr,OxAve_StaCorr,Ox1uM,Ox1uM_CruiseCorr,Ox1uM_StaCorr,Ox2uM,Ox2uM_CruiseCorr,Ox2uM_StaCorr,OxAveuM_StaCorr,FluorV,FluorQ,EstChl_CruiseCorr,EstChl_StaCorr,ISUSV,ISUSQ,EstNO3_CruiseCorr,EstNO3_StaCorr,SigThetaTS1,SigThetaTS1Q,SigThetaTS2,SigThetaTS2Q,BAT,XMiss,TransQ,pH,pHQ,SPAR,SPARQ,PAR,PARQ,PoT1,PoT2,DynHt,SVA,OxSat1,OxSat2,BTL_Depth,BTL_Temp,SaltB,OxB,OxBuM,Chl-a,Phaeo,NO3,NO2,NH4,PO4,SIL
CalCOFI,2007SR,031,32,2007_031u,19-Jul-2020 06:14:44,18-Jul-2020 22:14:44,33.41740,-117.90283,090.0 030.0,090.0,030.0,515.000,519.326,,6.4900,,6.4902,,6.4901,34.2964,,34.2966,34.2977,,34.2993,34.2980,0.3541,,0.3523,0.3136,1.8968,,0.5870,0.3944,0.3540,15.399,15.5869,32.6614,82.487,,37.4293,35.0454,0.0312,,,,-99.0,,-99.0,-99.0,26.9396,,26.9405,,0.6798,84.3713,,7.523,,1.9043E+00,,1.0000E-12,,6.4428,6.4430,0.8884,,5.160,27.640,515,6.490,34.3000,0.328,14.30,,,38.23,0.041,0.00,3.15,72.23
CalCOFI,2007SR,031,32,2007_031u,19-Jul-2020 06:15:04,18-Jul-2020 22:15:04,33.41740,-117.90283,090.0 030.0,090.0,030.0,514.000,518.316,,6.4883,,6.4882,,6.4883,34.2964,,34.2966,34.2976,,34.2992,34.2979,0.3533,,0.3515,0.3128,1.8778,,0.5417,0.3398,0.3263,15.366,15.5525,32.6355,81.664,,35.7213,34.1784,0.0322,,,,-99.0,,-99.0,-99.0,26.9397,,26.9407,,0.6789,84.3893,,7.523,,1.9043E+00,,1.0000E-12,,6.4412,6.4411,0.8889,,5.149,27.363,,,,,,,,,,,,
CalCOFI,2007SR,031,32,2007_031u,19-Jul-2020 06:15:05,18-Jul-2020 22:15:05,33.41740,-117.90283,090.0 030.0,090.0,030.0,513.000,517.307,,6.4886,,6.4890,,6.4888,34.2963,,34.2965,34.2975,,34.2991,34.2978,0.3546,,0.3528,0.3141,1.8807,,0.5486,0.3481,0.3311,15.420,15.6088,32.6779,81.787,,35.9765,34.3272,0.0318,,,,-99.0,,-99.0,-99.0,26.9396,,26.9405,,0.6781,84.4073,,7.523,,1.9043E+00,,1.0000E-12,,6.4416,6.4420,0.8889,,5.167,27.404,,,,,,,,,,,,
CalCOFI,2007SR,031,32,2007_031u,19-Jul-2020 06:15:06,18-Jul-2020 22:15:06,33.41740,-117.90282,090.0 030.0,090.0,030.0,512.000,516.297,,6.4928,,6.4933,,6.4931,34.2958,,34.2960,34.2969,,34.2985,34.2973,0.3542,,0.3524,0.3137,1.8766,,0.5388,0.3363,0.3250,15.404,15.5921,32.6653,81.611,,35.6113,34.1383,0.0315,,,,-99.0,,-99.0,-99.0,26.9386,,26.9395,,0.6798,84.3718,,7.523,,1.9043E+00,,1.0000E-12,,6.4458,6.4464,0.8889,,5.162,27.348,,,,,,,,,,,,
CalCOFI,2007SR,031,32,2007_031u,19-Jul-2020 06:15:07,18-Jul-2020 22:15:07,33.41740,-117.90282,090.0 030.0,090.0,030.0,511.000,515.287,,6.4956,,6.4960,,6.4958,34.2957,,34.2959,34.2969,,34.2985,34.2972,0.3541,,0.3523,0.3136,1.8747,,0.5343,0.3309,0.3223,15.401,15.5890,32.6630,81.527,,35.4369,34.0500,0.0314,,,,-99.0,,-99.0,-99.0,26.9382,,26.9391,,0.6836,84.2900,,7.523,,1.9043E+00,,1.0000E-12,,6.4488,6.4491,0.8889,,5.161,27.321,,,,,,,,,,,,
CalCOFI,2007SR,031,32,2007_031u,19-Jul-2020 06:15:08,18-Jul-2020 22:15:08,33.41740,-117.90282,090.0 030.0,090.0,030.0,510.000,514.278,,6.5014,,6.5018,,6.5016,34.2950,,34.2952,34.2961,,34.2977,34.2965,0.3540,,0.3522,0.3135,1.8735,,0.5314,0.3274,0.3205,15.396,15.5838,32.6591,81.475,,35.3290,33.9941,0.0316,,,,-99.0,,-99.0,-99.0,26.9369,,26.9377,,0.6925,84.1038,,7.523,,1.9043E+00,,1.0000E-12,,6.4547,6.4550,0.8889,,5.160,27.308,,,,,,,,,,,,
CalCOFI,2007SR,031,32,2007_031u,19-Jul-2020 06:15:10,18-Jul-2020 22:15:10,33.41740,-117.90282,090.0 030.0,090.0,030.0,509.000,513.268,,6.5032,,6.5033,,6.5033,34.2948,,34.2950,34.2960,,34.2976,34.2963,0.3540,,0.3522,0.3135,1.8751,,0.5352,0.3320,0.3228,15.394,15.5817,32.6575,81.546,,35.4764,34.0670,0.0317,,,,-99.0,,-99.0,-99.0,26.9365,,26.9374,,0.6948,84.0548,,7.523,,1.9043E+00,,1.0000E-12,,6.4565,6.4566,0.8889,,5.160,27.332,,,,,,,,,,,,
CalCOFI,2007SR,031,32,2007_031u,19-Jul-2020 06:15:11,18-Jul-2020 22:15:11,33.41740,-117.90282,090.0 030.0,090.0,030.0,508.000,512.258,,6.5058,,6.5057,,6.5058,34.2945,,34.2947,34.2957,,34.2973,34.2960,0.3554,,0.3537,0.3150,1.8750,,0.5350,0.3317,0.3234,15.456,15.6464,32.7062,81.540,,35.4639,34.0851,0.0323,,,,-99.0,,-99.0,-99.0,26.9359,,26.9369,,0.7010,83.9240,,7.523,,1.9043E+00,,1.0000E-12,,6.4592,6.4591,0.8889,,5.181,27.332,,,,,,,,,,,,
CalCOFI,2007SR,031,32,2007_031u,19-Jul-2020 06:15:12,18-Jul-2020 22:15:12,33.41740,-117.90283,090.0 030.0,090.0,030.0,507.000,511.249,,6.5101,,6.5099,,6.5100,34.2940,,34.2942,34.2953,,34.2969,34.2956,0.3645,,0.3632,0.3246,1.8731,,0.5305,0.3263,0.3255,15.854,16.0619,33.0191,81.461,,35.3000,34.1596,0.0314,,,,-99.0,,-99.0,-99.0,26.9349,,26.9359,,0.7020,83.9046,,7.523,,1.9043E+00,,1.0000E-12,,6.4636,6.4633,0.8889,,5.314,27.308,,,,,,,,,,,,
CalCOFI,2007SR,031,32,2007_031u,19-Jul-2020 06:15:13,18-Jul-2020 22:15:13,33.41740,-117.90284,090.0 030.0,090.0,030.0,506.000,510.239,,6.5128,,6.5127,,6.5128,34.2930,,34.2932,34.2942,,34.2958,34.2945,0.3676,,0.3664,0.3279,1.8703,,0.5238,0.3182,0.3231,15.986,16.1997,33.1229,81.336,,35.0405,34.0817,0.0317,,,,-99.0,,-99.0,-99.0,26.9337,,26.9347,,0.6993,83.9614,,7.523,,1.9043E+00,,1.0000E-12,,6.4664,6.4663,0.8889,,5.359,27.268,,,,,,,,,,,,
CalCOFI,2007SR,031,32,2007_031u,19-Jul-2020 06:15:14,18-Jul-2020 22:15:14,33.41740,-117.90283,090.0 030.0,090.0,030.0,505.000,509.230,,6.5114,,6.5119,,6.5117,34.2925,,34.2927,34.2937,,34.2953,34.2940,0.3653,,0.3640,0.3255,1.8634,,0.5073,0.2984,0.3120,15.888,16.0974,33.0459,81.037,,34.4200,33.7330,0.0320,,,,-99.0,,-99.0,-99.0,26.9335,,26.9344,,0.6847,84.2672,,7.523,,1.9043E+00,,1.0000E-12,,6.4651,6.4656,0.8889,,5.326,27.167,,,,,,,,,,,,
CalCOFI,2007SR,031,32,2007_031u,19-Jul-2020 06:15:15,18-Jul-2020 22:15:15,33.41740,-117.90282,090.0 030.0,090.0,030.0,504.000,508.220,,6.5106,,6.5112,,6.5109,34.2923,,34.2925,34.2934,,34.2950,34.2938,0.3708,,0.3697,0.3313,1.8672,,0.5164,0.3093,0.3203,16.128,16.3479,33.2345,81.200,,34.7583,33.9964,0.0313,,,,-99.0,,-99.0,-99.0,26.9334,,26.9342,,0.6763,84.4438,,7.523,,1.9043E+00,,1.0000E-12,,6.4644,6.4650,0.8889,,5.406,27.221,,,,,,,,,,,,
CalCOFI,2007SR,031,32,2007_031u,19-Jul-2020 06:15:15,18-Jul-2020 22:15:15,33.41740,-117.90282,090.0 030.0,090.0,030.0,503.000,507.210,,6.5116,,6.5116,,6.5116,34.2923,,34.2925,34.2934,,34.2950,34.2938,0.3741,,0.3732,0.3348,1.8685,,0.5195,0.3130,0.3239,16.268,16.4941,33.3446,81.260,,34.8828,34.1137,0.0311,,,,-99.0,,-99.0,-99.0,26.9333,,26.9341,,0.6728,84.5179,,7.523,,1.9043E+00,,1.0000E-12,,6.4654,6.4654,0.8889,,5.454,27.241,,,,,,,,,,,,
CalCOFI,2007SR,031,32,2007_031u,19-Jul-2020 06:15:17,18-Jul-2020 22:15:17,33.41740,-117.90282,090.0 030.0,090.0,030.0,502.000,506.201,,6.5107,,6.5110,,6.5109,34.2919,,34.2921,34.2930,,34.2946,34.2934,0.3755,,0.3747,0.3363,1.8683,,0.5190,0.3125,0.3244,16.332,16.5609,33.3949,81.251,,34.8641,34.1295,0.0323,,,,-99.0,,-99.0,-99.0,26.9331,,26.9340,,0.6722,84.5306,,7.523,,1.9043E+00,,1.0000E-12,,6.4646,6.4649,0.8889,,5.475,27.238,,,,,,,,,,,,
CalCOFI,2007SR,031,32,2007_031u,19-Jul-2020 06:15:18,18-Jul-2020 22:15:18,33.41740,-117.90284,090.0 030.0,090.0,030.0,501.000,505.191,,6.5086,,6.5090,,6.5088,34.2914,,34.2916,34.2924,,34.2940,34.2928,0.3832,,0.3827,0.3444,1.8682,,0.5188,0.3122,0.3283,16.665,16.9085,33.6567,81.245,,34.8517,34.2542,0.0317,,,,-99.0,,-99.0,-99.0,26.9330,,26.9337,,0.6629,84.7278,,7.523,,1.9043E+00,,1.0000E-12,,6.4627,6.4630,0.8889,,5.586,27.234,,,,,,,,,,,,
CalCOFI,2007SR,031,32,2007_031u,19-Jul-2020 06:15:19,18-Jul-2020 22:15:19,33.41740,-117.90284,090.0 030.0,090.0,030.0,500.000,504.182,,6.5074,,6.5076,,6.5075,34.2905,,34.2907,34.2914,,34.2930,34.2919,0.3864,,0.3860,0.3478,1.8680,,0.5183,0.3116,0.3297,16.802,17.0515,33.7644,81.238,,34.8371,34.3008,0.0309,,,,-99.0,,-99.0,-99.0,26.9324,,26.9331,,0.6550,84.8953,,7.523,,1.9043E+00,,1.0000E-12,,6.4616,6.4617,0.8889,,5.632,27.231,,,,,,,,,,,,
CalCOFI,2007SR,031,32,2007_031u,19-Jul-2020 06:15:20,18-Jul-2020 22:15:20,33.41740,-117.90284,090.0 030.0,090.0,030.0,499.000,503.172,,6.5062,,6.5065,,6.5064,34.2897,,34.2899,34.2908,,34.2924,34.2912,0.3930,,0.3929,0.3548,1.8674,,0.5168,0.3099,0.3324,17.091,17.3532,33.9916,81.211,,34.7811,34.3864,0.0317,,,,-99.0,,-99.0,-99.0,26.9320,,26.9327,,0.6478,85.0477,,7.523,,1.9043E+00,,1.0000E-12,,6.4605,6.4608,0.8889,,5.728,27.221,,,,,,,,,,,,
CalCOFI,2007SR,031,32,2007_031u,19-Jul-2020 06:15:21,18-Jul-2020 22:15:21,33.41740,-117.90284,090.0 030.0,090.0,030.0,498.000,502.162,,6.5088,,6.5078,,6.5083,34.2884,,34.2886,34.2899,,34.2915,34.2901,0.3934,,0.3934,0.3552,1.8647,,0.5104,0.3021,0.3287,17.107,17.3699,34.0042,81.094,,34.5383,34.2713,0.0319,,,,-99.0,,-99.0,-99.0,26.9305,,26.9318,,0.6404,85.2046,,7.523,,1.9043E+00,,1.0000E-12,,6.4631,6.4622,0.8889,,5.734,27.182,,,,,,,,,,,,
CalCOFI,2007SR,031,32,2007_031u,19-Jul-2020 06:15:22,18-Jul-2020 22:15:22,33.41740,-117.90284,090.0 030.0,090.0,030.0,497.000,501.153,,6.5211,,6.5220,,6.5216,34.2872,,34.2874,34.2884,,34.2900,34.2887,0.3971,,0.3972,0.3592,1.8676,,0.5173,0.3105,0.3349,17.270,17.5401,34.1323,81.219,,34.7977,34.4650,0.0319,,,,-99.0,,-99.0,-99.0,26.9280,,26.9288,,0.6380,85.2576,,7.523,,1.9043E+00,,1.0000E-12,,6.4755,6.4764,0.8889,,5.790,27.233,,,,,,,,,,,,
CalCOFI,2007SR,031,32,2007_031u,19-Jul-2020 06:15:23,18-Jul-2020 22:15:23,33.41740,-117.90284,090.0 030.0,090.0,030.0,496.000,500.143,,6.5295,,6.5301,,6.5298,34.2867,,34.2869,34.2878,,34.2894,34.2882,0.4000,,0.4003,0.3622,1.8617,,0.5032,0.2935,0.3279,17.396,17.6716,34.2314,80.964,,34.2685,34.2500,0.0322,,,,-99.0,,-99.0,-99.0,26.9264,,26.9272,,0.6361,85.2970,,7.523,,1.9043E+00,,1.0000E-12,,6.4840,6.4845,0.8889,,5.834,27.153,,,,,,,,,,,,
CalCOFI,2007SR,031,32,2007_031u,19-Jul-2020 06:15:24,18-Jul-2020 22:15:24,33.41740,-117.90282,090.0 030.0,090.0,030.0,495.000,499.134,,6.5350,,6.5355,,6.5353,34.2860,,34.2862,34.2873,,34.2889,34.2876,0.4025,,0.4029,0.3649,1.8560,,0.4896,0.2771,0.3210,17.504,17.7843,34.3163,80.717,,33.7558,34.0361,0.0316,,,,-99.0,,-99.0,-99.0,26.9251,,26.9261,,0.6349,85.3233,,7.523,,1.9043E+00,,1.0000E-12,,6.4896,6.4900,0.8889,,5.871,27.073,,,,,,,,,,,,
CalCOFI,2007SR,031,32,2007_031u,19-Jul-2020 06:15:25,18-Jul-2020 22:15:25,33.41740,-117.90282,090.0 030.0,090.0,030.0,494.000,498.124,,6.5408,,6.5409,,6.5409,34.2854,,34.2856,34.2866,,34.2882,34.2869,0.3986,,0.3988,0.3607,1.8594,,0.4977,0.2869,0.3238,17.335,17.6079,34.1834,80.862,,34.0568,34.1201,0.0317,,,,-99.0,,-99.0,-99.0,26.9239,,26.9248,,0.6331,85.3624,,7.523,,1.9043E+00,,1.0000E-12,,6.4954,6.4955,0.8889,,5.815,27.124,,,,,,,,,,,,
CalCOFI,2007SR,031,32,2007_031u,19-Jul-2020 06:15:26,18-Jul-2020 22:15:26,33.41740,-117.90284,090.0 030.0,090.0,030.0,493.000,497.115,,6.5436,,6.5442,,6.5439,34.2852,,34.2854,34.2864,,34.2880,34.2867,0.4016,,0.4019,0.3639,1.8597,,0.4985,0.2877,0.3258,17.467,17.7457,34.2872,80.875,,34.0838,34.1855,0.0320,,,,-99.0,,-99.0,-99.0,26.9234,,26.9242,,0.6338,85.3466,,7.523,,1.9043E+00,,1.0000E-12,,6.4983,6.4989,0.8889,,5.859,27.131,,,,,,,,,,,,
CalCOFI,2007SR,031,32,2007_031u,19-Jul-2020 06:15:27,18-Jul-2020 22:15:27,33.41740,-117.90284,090.0 030.0,090.0,030.0,492.000,496.105,,6.5510,,6.5511,,6.5511,34.2848,,34.2850,34.2859,,34.2875,34.2863,0.4038,,0.4042,0.3663,1.8591,,0.4970,0.2860,0.3262,17.561,17.8438,34.3611,80.849,,34.0298,34.1955,0.0334,,,,-99.0,,-99.0,-99.0,26.9221,,26.9229,,0.6334,85.3560,,7.523,,1.9043E+00,,1.0000E-12,,6.5057,6.5059,0.8889,,5.892,27.127,,,,,,,,,,,,
CalCOFI,2007SR,031,32,2007_031u,19-Jul-2020 06:15:28,18-Jul-2020 22:15:28,33.41740,-117.90284,090.0 030.0,090.0,030.0,491.000,495.096,,6.5535,,6.5538,,6.5537,34.2846,,34.2848,34.2858,,34.2874,34.2861,0.4010,,0.4013,0.3633,1.8587,,0.4961,0.2849,0.3241,17.438,17.7154,34.2644,80.833,,33.9966,34.1305,0.0307,,,,-99.0,,-99.0,-99.0,26.9216,,26.9225,,0.6331,85.3610,,7.523,,1.9043E+00,,1.0000E-12,,6.5084,6.5087,0.8889,,5.851,27.123,,,,,,,,,,,,
CalCOFI,2007SR,031,32,2007_031u,19-Jul-2020 06:15:29,18-Jul-2020 22:15:29,33.41740,-117.90284,090.0 030.0,090.0,030.0,490.000,494.086,,6.5620,,6.5629,,6.5625,34.2850,,34.2852,34.2861,,34.2877,34.2865,0.4045,,0.4050,0.3670,1.8580,,0.4944,0.2828,0.3249,17.591,17.8751,34.3847,80.804,,33.9364,34.1606,0.0313,,,,-99.0,,-99.0,-99.0,26.9208,,26.9215,,0.6352,85.3176,,7.523,,1.9043E+00,,1.0000E-12,,6.5169,6.5178,0.8889,,5.904,27.119,,,,,,,,,,,,
CalCOFI,2007SR,031,32,2007_031u,19-Jul-2020 06:15:30,18-Jul-2020 22:15:30,33.41740,-117.90284,090.0 030.0,090.0,030.0,489.000,493.076,,6.5686,,6.5689,,6.5688,34.2845,,34.2847,34.2856,,34.2872,34.2860,0.4085,,0.4091,0.3712,1.8575,,0.4932,0.2814,0.3263,17.765,18.0568,34.5215,80.781,,33.8887,34.2051,0.0314,,,,-99.0,,-99.0,-99.0,26.9195,,26.9203,,0.6376,85.2660,,7.523,,1.9043E+00,,1.0000E-12,,6.5236,6.5238,0.8889,,5.963,27.115,,,,,,,,,,,,
CalCOFI,2007SR,031,32,2007_031u,19-Jul-2020 06:15:31,18-Jul-2020 22:15:31,33.41740,-117.90284,090.0 030.0,090.0,030.0,488.000,492.067,,6.5739,,6.5737,,6.5738,34.2835,,34.2837,34.2848,,34.2864,34.2851,0.4109,,0.4116,0.3738,1.8570,,0.4920,0.2800,0.3269,17.870,18.1664,34.6040,80.761,,33.8472,34.2256,0.0318,,,,-99.0,,-99.0,-99.0,26.9180,,26.9190,,0.6376,85.2657,,7.523,,1.9043E+00,,1.0000E-12,,6.5290,6.5288,0.8889,,5.999,27.111,,,,,,,,,,,,
CalCOFI,2007SR,031,32,2007_031u,19-Jul-2020 06:15:32,18-Jul-2020 22:15:32,33.41740,-117.90284,090.0 030.0,090.0,030.0,487.000,491.057,,6.5777,,6.5779,,6.5778,34.2821,,34.2823,34.2831,,34.2847,34.2835,0.4095,,0.4102,0.3723,1.8566,,0.4911,0.2788,0.3256,17.808,18.1017,34.5553,80.742,,33.8077,34.1815,0.0329,,,,-99.0,,-99.0,-99.0,26.9164,,26.9171,,0.6357,85.3061,,7.523,,1.9043E+00,,1.0000E-12,,6.5328,6.5331,0.8889,,5.978,27.107,,,,,,,,,,,,
CalCOFI,2007SR,031,32,2007_031u,19-Jul-2020 06:15:33,18-Jul-2020 22:15:33,33.41740,-117.90284,090.0 030.0,090.0,030.0,486.000,490.048,,6.5803,,6.5804,,6.5804,34.2810,,34.2812,34.2822,,34.2838,34.2825,0.4142,,0.4151,0.3773,1.8563,,0.4903,0.2780,0.3277,18.013,18.3157,34.7164,80.727,,33.7766,34.2465,0.0314,,,,-99.0,,-99.0,-99.0,26.9151,,26.9161,,0.6353,85.3159,,7.524,,1.9043E+00,,1.0000E-12,,6.5356,6.5356,0.8889,,6.048,27.103,,,,,,,,,,,,
CalCOFI,2007SR,031,32,2007_031u,19-Jul-2020 06:15:34,18-Jul-2020 22:15:34,33.41740,-117.90284,090.0 030.0,090.0,030.0,485.000,489.038,,6.5813,,6.5815,,6.5814,34.2806,,34.2808,34.2816,,34.2832,34.2820,0.4139,,0.4148,0.3770,1.8560,,0.4896,0.2771,0.3271,17.999,18.3011,34.7054,80.715,,33.7517,34.2286,0.0330,,,,-99.0,,-99.0,-99.0,26.9146,,26.9155,,0.6338,85.3466,,7.524,,1.9043E+00,,1.0000E-12,,6.5367,6.5368,0.8889,,6.043,27.100,,,,,,,,,,,,
CalCOFI,2007SR,031,32,2007_031u,19-Jul-2020 06:15:35,18-Jul-2020 22:15:35,33.41740,-117.90284,090.0 030.0,090.0,030.0,484.000,488.029,,6.5814,,6.5817,,6.5816,34.2802,,34.2804,34.2810,,34.2826,34.2815,0.4113,,0.4121,0.3742,1.8557,,0.4889,0.2762,0.3252,17.887,18.1841,34.6174,80.704,,33.7289,34.1732,0.0319,,,,-99.0,,-99.0,-99.0,26.9143,,26.9149,,0.6336,85.3515,,7.524,,1.9043E+00,,1.0000E-12,,6.5368,6.5371,0.8889,,6.005,27.096,,,,,,,,,,,,
CalCOFI,2007SR,031,32,2007_031u,19-Jul-2020 06:15:36,18-Jul-2020 22:15:36,33.41740,-117.90284,090.0 030.0,090.0,030.0,483.000,487.019,,6.5815,,6.5818,,6.5817,34.2799,,34.2801,34.2809,,34.2825,34.2813,0.4174,,0.4184,0.3807,1.8555,,0.4884,0.2757,0.3282,18.155,18.4639,34.8281,80.694,,33.7081,34.2681,0.0312,,,,-99.0,,-99.0,-99.0,26.9141,,26.9149,,0.6335,85.3530,,7.524,,1.9043E+00,,1.0000E-12,,6.5370,6.5373,0.8889,,6.095,27.092,,,,,,,,,,,,
CalCOFI,2007SR,031,32,2007_031u,19-Jul-2020 06:15:36,18-Jul-2020 22:15:36,33.41740,-117.90284,090.0 030.0,090.0,030.0,482.000,486.010,,6.5845,,6.5848,,6.5847,34.2796,,34.2798,34.2806,,34.2822,34.2810,0.4188,,0.4199,0.3821,1.8551,,0.4875,0.2745,0.3283,18.215,18.5265,34.8752,80.677,,33.6728,34.2740,0.0372,,,,-99.0,,-99.0,-99.0,26.9135,,26.9142,,0.6343,85.3359,,7.525,,1.9043E+00,,1.0000E-12,,6.5401,6.5404,0.8889,,6.116,27.089,,,,,,,,,,,,
CalCOFI,2007SR,031,32,2007_031u,19-Jul-2020 06:15:38,18-Jul-2020 22:15:38,33.41740,-117.90284,090.0 030.0,090.0,030.0,481.000,485.000,,6.5869,,6.5866,,6.5868,34.2783,,34.2785,34.2796,,34.2812,34.2799,0.4227,,0.4240,0.3863,1.8548,,0.4868,0.2736,0.3300,18.382,18.7009,35.0065,80.663,,33.6438,34.3252,0.0324,,,,-99.0,,-99.0,-99.0,26.9121,,26.9131,,0.6336,85.3504,,7.525,,1.9043E+00,,1.0000E-12,,6.5426,6.5423,0.8889,,6.172,27.085,,,,,,,,,,,,
CalCOFI,2007SR,031,32,2007_031u,19-Jul-2020 06:15:39,18-Jul-2020 22:15:39,33.41740,-117.90284,090.0 030.0,090.0,030.0,480.000,483.991,,6.5899,,6.5900,,6.5900,34.2774,,34.2776,34.2786,,34.2802,34.2789,0.4256,,0.4270,0.3893,1.8544,,0.4858,0.2725,0.3309,18.508,18.8324,35.1056,80.646,,33.6085,34.3571,0.0315,,,,-99.0,,-99.0,-99.0,26.9110,,26.9119,,0.6335,85.3539,,7.526,,1.9043E+00,,1.0000E-12,,6.5456,6.5457,0.8889,,6.215,27.081,,,,,,,,,,,,
CalCOFI,2007SR,031,32,2007_031u,19-Jul-2020 06:15:40,18-Jul-2020 22:15:40,33.41740,-117.90282,090.0 030.0,090.0,030.0,479.000,482.981,,6.5985,,6.5991,,6.5988,34.2763,,34.2765,34.2775,,34.2791,34.2778,0.4288,,0.4304,0.3927,1.8537,,0.4841,0.2705,0.3316,18.647,18.9775,35.2149,80.618,,33.5504,34.3827,0.0304,,,,-99.0,,-99.0,-99.0,26.9089,,26.9098,,0.6344,85.3332,,7.526,,1.9043E+00,,1.0000E-12,,6.5543,6.5549,0.8889,,6.263,27.077,,,,,,,,,,,,
CalCOFI,2007SR,031,32,2007_031u,19-Jul-2020 06:15:41,18-Jul-2020 22:15:41,33.41741,-117.90282,090.0 030.0,090.0,030.0,478.000,481.972,,6.6128,,6.6127,,6.6128,34.2760,,34.2762,34.2773,,34.2789,34.2776,0.4268,,0.4283,0.3906,1.8512,,0.4782,0.2633,0.3270,18.562,18.8888,35.1480,80.508,,33.3221,34.2351,0.0311,,,,-99.0,,-99.0,-99.0,26.9068,,26.9078,,0.6346,85.3308,,7.527,,1.9043E+00,,1.0000E-12,,6.5687,6.5686,0.8889,,6.236,27.049,,,,,,,,,,,,
CalCOFI,2007SR,031,32,2007_031u,19-Jul-2020 06:15:42,18-Jul-2020 22:15:42,33.41740,-117.90282,090.0 030.0,090.0,030.0,477.000,480.962,,6.6240,,6.6241,,6.6241,34.2770,,34.2772,34.2783,,34.2799,34.2786,0.4312,,0.4329,0.3953,1.8514,,0.4786,0.2639,0.3296,18.753,19.0882,35.2982,80.518,,33.3428,34.3205,0.0320,,,,-99.0,,-99.0,-99.0,26.9061,,26.9071,,0.6367,85.2857,,7.526,,1.9043E+00,,1.0000E-12,,6.5799,6.5800,0.8889,,6.302,27.059,,,,,,,,,,,,
CalCOFI,2007SR,031,32,2007_031u,19-Jul-2020 06:15:43,18-Jul-2020 22:15:43,33.41740,-117.90282,090.0 030.0,090.0,030.0,476.000,479.953,,6.6349,,6.6344,,6.6347,34.2758,,34.2760,34.2771,,34.2787,34.2774,0.4324,,0.4341,0.3965,1.8526,,0.4815,0.2673,0.3319,18.805,19.1424,35.3391,80.571,,33.4528,34.3960,0.0310,,,,-99.0,,-99.0,-99.0,26.9037,,26.9048,,0.6368,85.2831,,7.527,,1.9043E+00,,1.0000E-12,,6.5909,6.5904,0.8889,,6.321,27.083,,,,,,,,,,,,
CalCOFI,2007SR,031,32,2007_031u,19-Jul-2020 06:15:44,18-Jul-2020 22:15:44,33.41740,-117.90284,090.0 030.0,090.0,030.0,475.000,478.943,,6.6393,,6.6388,,6.6391,34.2746,,34.2748,34.2761,,34.2777,34.2763,0.4357,,0.4376,0.4000,1.8509,,0.4775,0.2624,0.3312,18.950,19.2938,35.4531,80.494,,33.2930,34.3731,0.0315,,,,-99.0,,-99.0,-99.0,26.9021,,26.9034,,0.6375,85.2678,,7.526,,1.9043E+00,,1.0000E-12,,6.5954,6.5948,0.8889,,6.370,27.060,,,,,,,,,,,,
CalCOFI,2007SR,031,32,2007_031u,19-Jul-2020 06:15:45,18-Jul-2020 22:15:45,33.41740,-117.90284,090.0 030.0,090.0,030.0,474.000,477.934,,6.6387,,6.6389,,6.6388,34.2740,,34.2742,34.2751,,34.2767,34.2755,0.4357,,0.4376,0.4000,1.8492,,0.4734,0.2575,0.3288,18.950,19.2938,35.4531,80.423,,33.1457,34.2994,0.0313,,,,-99.0,,-99.0,-99.0,26.9017,,26.9026,,0.6377,85.2637,,7.527,,1.9043E+00,,1.0000E-12,,6.5949,6.5951,0.8889,,6.370,27.036,,,,,,,,,,,,
CalCOFI,2007SR,031,32,2007_031u,19-Jul-2020 06:15:46,18-Jul-2020 22:15:46,33.41740,-117.90284,090.0 030.0,090.0,030.0,473.000,476.925,,6.6369,,6.6373,,6.6371,34.2733,,34.2735,34.2742,,34.2758,34.2747,0.4426,,0.4448,0.4074,1.8500,,0.4753,0.2598,0.3336,19.248,19.6049,35.6874,80.458,,33.2183,34.4529,0.0313,,,,-99.0,,-99.0,-99.0,26.9014,,26.9021,,0.6370,85.2790,,7.527,,1.9043E+00,,1.0000E-12,,6.5932,6.5935,0.8889,,6.470,27.046,,,,,,,,,,,,
CalCOFI,2007SR,031,32,2007_031u,19-Jul-2020 06:15:47,18-Jul-2020 22:15:47,33.41740,-117.90283,090.0 030.0,090.0,030.0,472.000,475.915,,6.6407,,6.6406,,6.6407,34.2725,,34.2727,34.2734,,34.2750,34.2739,0.4457,,0.4480,0.4106,1.8511,,0.4779,0.2630,0.3368,19.385,19.7479,35.7951,80.503,,33.3117,34.5534,0.0320,,,,-99.0,,-99.0,-99.0,26.9003,,26.9010,,0.6364,85.2915,,7.527,,1.9043E+00,,1.0000E-12,,6.5971,6.5969,0.8889,,6.517,27.064,,,,,,,,,,,,
CalCOFI,2007SR,031,32,2007_031u,19-Jul-2020 06:15:48,18-Jul-2020 22:15:48,33.41740,-117.90282,090.0 030.0,090.0,030.0,471.000,474.906,,6.6422,,6.6423,,6.6423,34.2691,,34.2693,34.2704,,34.2720,34.2707,0.4472,,0.4496,0.4122,1.8498,,0.4748,0.2593,0.3358,19.448,19.8137,35.8446,80.447,,33.1955,34.5201,0.0317,,,,-99.0,,-99.0,-99.0,26.8974,,26.8984,,0.6343,85.3361,,7.527,,1.9043E+00,,1.0000E-12,,6.5986,6.5988,0.8889,,6.538,27.045,,,,,,,,,,,,
CalCOFI,2007SR,031,32,2007_031u,19-Jul-2020 06:15:49,18-Jul-2020 22:15:49,33.41740,-117.90282,090.0 030.0,090.0,030.0,470.000,473.896,,6.6408,,6.6411,,6.6410,34.2686,,34.2688,34.2696,,34.2712,34.2700,0.4483,,0.4507,0.4134,1.8496,,0.4744,0.2587,0.3361,19.499,19.8669,35.8847,80.440,,33.1809,34.5328,0.0308,,,,-99.0,,-99.0,-99.0,26.8971,,26.8979,,0.6327,85.3701,,7.527,,1.9043E+00,,1.0000E-12,,6.5973,6.5976,0.8889,,6.555,27.042,,,,,,,,,,,,
CalCOFI,2007SR,031,32,2007_031u,19-Jul-2020 06:15:50,18-Jul-2020 22:15:50,33.41740,-117.90282,090.0 030.0,090.0,030.0,469.000,472.887,,6.6449,,6.6449,,6.6449,34.2681,,34.2683,34.2690,,34.2706,34.2695,0.4485,,0.4509,0.4136,1.8492,,0.4734,0.2575,0.3356,19.507,19.8753,35.8910,80.422,,33.1436,34.5173,0.0305,,,,-99.0,,-99.0,-99.0,26.8962,,26.8969,,0.6320,85.3855,,7.527,,1.9043E+00,,1.0000E-12,,6.6015,6.6016,0.8889,,6.558,27.038,,,,,,,,,,,,
CalCOFI,2007SR,031,32,2007_031u,19-Jul-2020 06:15:51,18-Jul-2020 22:15:51,33.41740,-117.90282,090.0 030.0,090.0,030.0,468.000,471.877,,6.6513,,6.6514,,6.6514,34.2678,,34.2680,34.2688,,34.2704,34.2692,0.4511,,0.4537,0.4164,1.8486,,0.4720,0.2558,0.3361,19.619,19.9922,35.9790,80.398,,33.0938,34.5364,0.0313,,,,-99.0,,-99.0,-99.0,26.8950,,26.8959,,0.6328,85.3686,,7.527,,1.9043E+00,,1.0000E-12,,6.6080,6.6081,0.8889,,6.597,27.034,,,,,,,,,,,,
CalCOFI,2007SR,031,32,2007_031u,19-Jul-2020 06:15:52,18-Jul-2020 22:15:52,33.41740,-117.90283,090.0 030.0,090.0,030.0,467.000,470.868,,6.6565,,6.6558,,6.6562,34.2683,,34.2685,34.2695,,34.2711,34.2698,0.4511,,0.4537,0.4164,1.8482,,0.4710,0.2547,0.3356,19.620,19.9932,35.9798,80.378,,33.0523,34.5161,0.0310,,,,-99.0,,-99.0,-99.0,26.8948,,26.8958,,0.6328,85.3673,,7.527,,1.9043E+00,,1.0000E-12,,6.6133,6.6126,0.8889,,6.598,27.030,,,,,,,,,,,,
CalCOFI,2007SR,031,32,2007_031u,19-Jul-2020 06:15:53,18-Jul-2020 22:15:53,33.41740,-117.90284,090.0 030.0,090.0,030.0,466.000,469.858,,6.6823,,6.6803,,6.6813,34.2715,,34.2717,34.2730,,34.2746,34.2732,0.4489,,0.4514,0.4140,1.8467,,0.4674,0.2503,0.3322,19.522,19.8909,35.9028,80.315,,32.9215,34.4122,0.0322,,,,-99.0,,-99.0,-99.0,26.8939,,26.8953,,0.6340,85.3422,,7.527,,1.9043E+00,,1.0000E-12,,6.6391,6.6371,0.8889,,6.569,27.025,,,,,,,,,,,,
CalCOFI,2007SR,031,32,2007_031u,19-Jul-2020 06:15:54,18-Jul-2020 22:15:54,33.41740,-117.90284,090.0 030.0,090.0,030.0,465.000,468.849,,6.7065,,6.7050,,6.7058,34.2731,,34.2733,34.2749,,34.2765,34.2749,0.4475,,0.4499,0.4125,1.8453,,0.4641,0.2463,0.3294,19.461,19.8272,35.8548,80.252,,32.7908,34.3228,0.0307,,,,-99.0,,-99.0,-99.0,26.8919,,26.8935,,0.6377,85.2634,,7.527,,1.9043E+00,,1.0000E-12,,6.6633,6.6618,0.8889,,6.552,27.019,,,,,,,,,,,,
CalCOFI,2007SR,031,32,2007_031u,19-Jul-2020 06:15:55,18-Jul-2020 22:15:55,33.41740,-117.90283,090.0 030.0,090.0,030.0,464.000,467.840,,6.7214,,6.7218,,6.7216,34.2745,,34.2747,34.2759,,34.2775,34.2761,0.4454,,0.4477,0.4103,1.8444,,0.4619,0.2437,0.3270,19.371,19.7333,35.7841,80.214,,32.7119,34.2480,0.0311,,,,-99.0,,-99.0,-99.0,26.8910,,26.8920,,0.6401,85.2123,,7.527,,1.9043E+00,,1.0000E-12,,6.6782,6.6786,0.8889,,6.524,27.017,,,,,,,,,,,,